RH
36 32 33 28 31 26 30 31 32 29 24 34 41 40 57 74 77 75 69 69 73 70 65 68 72 74 76 83 88 88 94 86 90 93 77 88 94 88 93 98 92 90 86 77
35 39 31 31 32 32 31 31 31 29 23 28 27 32 43 67 69 64 66 69 69 67 67 66 71 76 77 74 83 92 91 82 85 90 74 80 92 95 95 88 76 78 80 80
38 29 31 33 32 33 31 30 33 33 30 26 30 28 39 51 60 59 60 60 62 64 66 63 69 73 75 75 80 90 94 82 82 86 78 80 88 91 90 85 78 79 83 72
35 33 32 31 31 29 31 28 32 34 31 27 28 27 28 42 51 54 54 56 57 56 58 60 64 70 76 76 80 82 87 83 84 87 90 83 84 84 89 80 71 75 72 64
35 34 38 36 32 30 30 33 34 33 33 34 34 28 25 38 42 47 48 48 51 52 53 58 60 62 72 80 87 86 92 90 93 86 92 93 90 85 77 74 66 69 67 61
34 32 33 31 28 30 31 32 33 40 40 42 38 33 30 32 30 32 38 43 43 45 49 50 57 64 67 83 88 89 94 98 97 97 94 91 92 82 77 75 68 66 66 62
34 34 30 29 30 32 31 34 39 36 50 43 43 42 31 26 28 28 29 34 38 40 43 47 52 61 68 85 90 90 94 96 93 96 96 93 90 82 78 74 68 66 64 61
36 38 33 32 29 32 36 33 44 42 48 35 43 40 23 27 27 34 39 36 31 40 43 44 45 51 65 78 86 92 93 94 80 88 89 97 94 89 83 79 74 68 63 60
47 38 34 37 32 27 34 36 35 58 70 57 42 34 24 27 30 35 38 40 36 39 45 44 44 51 61 76 85 89 92 91 80 65 98 100 99 98 91 84 80 75 65 58
38 37 36 35 36 36 32 33 42 49 54 55 41 39 26 24 26 30 33 35 38 45 44 51 50 56 64 75 82 93 92 88 75 92 100 100 100 100 94 88 84 79 67 58
40 31 33 42 39 34 37 38 42 39 48 46 47 35 31 25 25 30 32 33 39 41 48 53 58 70 74 79 85 88 88 86 95 97 96 94 98 100 100 99 94 82 70 61
38 44 46 33 35 32 33 37 40 52 46 59 59 40 26 29 27 27 27 30 39 41 44 56 65 76 85 87 89 93 96 96 94 87 87 93 99 100 100 100 96 84 74 65
44 43 44 35 35 34 38 38 43 49 55 58 67 41 26 28 27 27 27 25 31 46 53 62 69 74 81 90 95 96 96 93 92 92 94 95 98 100 100 97 94 87 75 63
38 49 41 36 34 36 43 42 45 44 57 53 51 37 29 26 29 27 29 30 28 31 55 64 72 74 79 84 86 89 93 93 91 90 89 91 93 91 93 88 80 76 67 50
40 44 47 38 33 34 35 40 46 41 44 49 38 41 31 30 29 29 33 33 44 56 62 66 68 70 74 78 83 85 83 82 80 77 75 77 78 75 69 59 55 52 48 46
48 45 43 42 45 41 44 40 44 43 44 42 40 40 33 31 31 37 38 51 58 61 65 66 62 66 74 78 79 84 85 84 81 80 76 76 66 62 58 56 55 54 54 59
54 65 57 49 49 42 59 48 40 40 42 42 46 35 35 35 39 44 52 53 57 60 64 68 73 78 82 83 86 85 86 85 81 80 79 75 66 64 66 67 66 72 83 91
62 61 62 68 61 64 37 37 35 39 37 36 36 34 34 37 52 52 49 51 57 60 66 69 70 73 77 80 83 83 81 81 79 77 76 77 81 88 88 93 99 99 86 78
56 68 72 73 60 48 37 37 38 40 28 31 33 36 44 54 51 56 62 60 63 68 70 73 74 75 75 75 76 75 76 78 80 83 86 89 92 94 98 92 89 85 89 89
63 64 64 71 63 62 45 35 36 30 42 36 38 50 55 54 54 49 64 66 69 72 73 74 76 75 76 78 79 81 85 86 88 89 91 92 90 88 86 88 92 96 98 99
72 75 70 74 70 62 45 35 36 45 37 44 43 50 55 48 48 61 68 70 72 75 78 79 77 80 84 86 86 88 92 95 97 99 99 99 100 96 88 84 86 86 85 83
68 73 81 77 78 63 42 39 44 46 44 47 50 54 58 69 73 70 70 72 73 74 77 79 82 86 91 89 90 98 99 100 100 92 81 78 73 67 68 69 72 73 79 80
70 63 62 59 63 52 44 41 40 42 42 52 51 54 64 73 71 71 73 72 72 73 78 80 82 84 84 83 80 79 80 75 66 62 70 67 66 69 71 78 80 78 81 83
63 58 63 59 51 50 52 50 53 48 49 50 48 55 61 67 71 72 69 71 71 74 74 75 75 76 81 83 85 82 73 69 72 84 88 86 83 80 81 78 78 76 79 82
66 62 63 60 55 67 60 60 55 60 65 65 61 60 64 69 70 65 69 70 71 74 75 74 76 82 89 93 95 82 78 77 81 84 84 82 78 74 69 70 77 76 76 80
64 61 66 62 45 46 41 51 65 68 66 64 66 72 68 65 67 65 70 74 76 78 78 79 86 86 90 92 84 80 66 57 67 68 68 71 71 73 70 68 65 75 80 73
Wind_Speed
1 2 5 8 5 4 4 3 0 2 3 3 9 6 13 14 10 10 11 10 11 12 10 15 19 20 20 21 22 23 23 22 20 20 18 16 18 20 20 19 16 15 16 16
1 3 3 3 5 5 3 1 2 1 2 6 5 6 2 13 11 13 13 12 13 11 9 14 19 21 25 26 26 24 25 25 24 22 22 16 18 20 21 19 17 17 17 20
4 3 2 3 3 4 2 1 2 3 1 2 2 2 2 6 10 9 12 10 12 13 13 12 19 23 23 26 26 25 24 26 26 24 24 21 19 17 17 18 18 18 20 21
4 1 2 2 4 3 2 1 3 3 1 2 1 2 4 5 10 11 14 13 16 15 14 14 21 24 25 26 26 28 28 29 27 27 23 26 21 18 17 20 20 21 22 22
4 4 3 5 5 5 4 3 1 1 2 2 1 1 1 1 9 17 18 17 17 17 17 18 21 24 24 26 27 28 25 26 24 27 25 28 23 21 21 22 21 21 22 22
3 2 5 5 3 4 4 2 4 3 2 1 1 2 3 4 7 8 16 18 18 17 18 19 24 22 23 22 23 24 22 19 22 26 28 30 25 27 22 25 24 23 23 23
0 3 2 3 3 1 2 2 1 1 1 2 3 1 6 5 6 9 11 17 20 18 17 17 18 22 23 24 25 25 23 25 27 27 30 31 33 32 28 28 30 29 28 26
6 3 7 4 5 6 5 4 4 3 3 1 1 4 2 3 6 8 8 11 9 14 15 17 19 23 24 24 23 24 25 27 29 29 31 32 31 31 29 29 33 34 34 32
4 4 1 2 2 3 3 3 2 6 2 0 1 4 8 1 1 3 3 5 7 8 12 17 16 21 21 23 27 27 24 25 32 25 29 28 28 28 31 31 31 34 35 33
6 1 1 2 2 3 2 6 2 1 3 3 2 3 3 3 2 3 7 5 6 6 7 9 10 15 17 19 19 20 23 27 32 26 23 25 24 26 31 31 31 31 35 35
5 2 2 2 5 7 3 3 4 3 1 3 2 4 6 6 2 4 5 6 7 7 6 5 7 9 12 14 17 21 21 20 19 23 26 24 24 26 27 28 30 34 37 33
5 4 4 7 1 2 3 6 6 3 5 1 0 5 3 7 5 5 7 4 4 6 7 4 6 7 9 12 13 14 16 18 21 22 23 24 24 25 27 29 31 32 34 29
7 2 2 2 1 1 4 5 4 4 2 7 4 4 1 3 6 5 8 5 3 4 5 5 4 4 6 7 8 11 14 17 19 18 16 15 16 17 18 22 23 25 25 28
9 4 6 10 7 4 4 5 5 5 3 4 6 6 7 7 6 9 6 7 8 5 3 2 2 2 2 4 6 7 7 8 8 8 8 9 11 12 13 16 18 24 28 29
6 7 6 4 3 5 5 6 11 9 6 7 8 9 8 7 6 5 6 5 4 5 4 3 3 4 4 4 5 5 6 7 7 7 7 8 9 10 11 12 13 16 20 21
3 4 5 4 3 5 5 3 9 10 2 8 5 10 9 3 3 1 2 4 8 9 10 10 8 6 4 2 2 5 8 7 7 7 8 9 10 9 10 10 12 13 13 15
4 7 4 4 1 1 4 8 10 4 5 6 8 11 4 6 6 5 6 8 8 8 9 10 10 11 11 10 7 8 8 9 10 10 10 11 12 13 13 15 19 22 20 14
6 4 2 3 2 7 2 1 3 11 9 10 8 7 6 4 6 6 4 9 8 7 9 9 10 12 13 14 16 16 15 15 15 14 14 14 16 19 21 21 16 13 10 6
3 5 3 5 5 4 2 5 7 7 15 11 13 6 6 12 8 4 3 6 8 8 9 12 12 14 15 16 17 20 20 18 18 17 16 16 18 17 15 12 7 4 5 9
5 3 3 3 5 9 4 3 5 4 13 8 11 11 17 12 7 5 8 7 9 11 12 14 15 16 18 17 18 23 21 21 21 19 18 15 12 9 7 3 1 5 6 8
3 2 5 3 3 6 6 4 6 6 12 6 12 14 16 9 1 11 12 10 11 13 15 16 18 20 19 19 22 25 22 19 15 13 11 10 8 7 5 4 3 5 7 9
7 8 4 3 2 6 8 6 10 6 2 5 10 12 11 10 13 14 13 12 13 16 17 18 22 21 19 18 21 20 17 12 13 14 13 10 7 6 5 5 6 8 9 10
4 6 7 9 7 2 10 4 8 4 4 5 11 10 13 16 11 14 14 13 14 18 19 19 22 22 19 18 19 20 13 12 13 13 11 10 8 7 7 6 7 9 9 11
3 3 4 3 6 7 7 3 3 5 5 5 7 14 16 15 17 16 14 14 15 19 20 21 23 22 19 17 17 16 14 12 12 11 10 8 8 7 8 8 8 10 12 14
3 7 6 3 4 2 9 11 6 6 6 9 9 9 13 19 17 17 15 15 19 20 20 20 21 20 19 16 18 17 15 11 11 10 8 8 8 10 10 10 10 10 10 12
5 7 5 7 9 7 8 14 10 11 11 13 14 13 13 16 19 18 15 20 22 21 21 21 20 21 17 17 17 14 12 11 9 9 8 9 9 9 9 10 11 10 10 12
Wind_Direction
35 183 222 225 187 176 128 123 189 250 261 255 223 209 194 206 202 211 218 217 225 232 222 194 194 200 199 200 202 203 206 207 204 196 191 194 199 203 209 207 209 206 199 200
93 230 246 271 194 166 150 74 328 314 341 205 302 253 191 193 221 208 213 226 227 229 213 205 201 200 201 202 203 204 208 208 206 203 202 200 199 207 212 205 206 207 207 197
180 183 98 204 206 203 191 220 200 241 325 82 187 313 205 207 243 240 232 223 239 229 220 211 210 209 208 209 208 208 210 212 210 205 203 202 207 210 206 198 199 195 190 185
227 244 168 233 223 168 257 176 164 249 185 191 319 223 284 227 227 236 237 228 233 227 224 216 208 213 211 213 214 215 216 217 215 214 207 206 203 201 205 195 191 183 183 180
222 160 188 219 221 179 229 161 169 107 126 158 19 157 233 96 238 239 236 232 228 226 221 224 222 218 212 209 210 215 215 219 216 218 214 212 208 210 206 196 186 183 182 185
197 183 157 218 219 190 135 107 54 76 106 200 173 207 276 209 219 253 238 236 235 224 219 221 224 223 217 210 210 213 211 212 218 220 218 217 212 214 200 192 187 185 188 189
177 212 205 184 153 111 117 118 279 178 148 196 143 154 244 252 236 242 252 234 231 231 223 218 212 211 211 205 205 208 200 207 219 230 226 226 220 219 211 200 199 192 190 191
185 249 177 187 199 196 192 193 166 198 192 179 164 225 212 216 274 290 283 271 247 229 227 225 220 215 207 204 204 204 199 203 217 238 237 228 225 226 222 214 209 208 203 200
150 256 182 176 138 170 172 201 106 105 19 240 246 272 276 334 0 303 324 314 283 244 227 228 224 217 210 202 204 206 197 204 214 223 229 227 226 222 223 219 218 214 210 205
198 165 263 138 143 62 204 143 119 36 168 223 256 274 249 313 293 322 327 327 307 300 241 230 226 218 212 208 206 205 200 206 217 217 223 227 229 227 225 222 220 215 212 208
136 150 240 125 203 186 151 177 71 119 149 194 202 240 213 237 227 256 274 270 272 262 256 237 229 213 211 203 202 211 213 214 212 216 228 237 238 232 230 230 227 223 216 208
190 149 198 207 129 197 181 196 169 177 196 146 210 258 258 252 264 280 281 246 242 254 267 250 235 200 194 203 204 207 211 217 226 235 237 236 233 231 227 227 225 222 215 209
174 175 202 298 46 22 219 185 135 105 91 185 177 251 223 275 291 254 270 282 260 242 229 229 223 233 198 196 189 199 218 224 234 234 236 231 228 221 219 223 219 213 208 204
127 149 176 223 217 153 190 186 180 151 157 179 219 250 270 287 292 291 289 299 293 277 241 173 136 242 239 207 221 217 213 212 220 220 212 205 209 216 218 220 211 216 207 208
156 198 180 233 213 176 202 187 180 196 203 193 243 211 247 248 263 280 305 317 28 58 74 104 143 159 172 204 177 192 226 237 235 220 209 205 192 185 190 202 206 205 202 203
174 197 152 185 106 192 228 182 199 218 221 256 245 249 236 223 232 317 13 96 90 83 79 73 72 80 96 162 171 139 147 161 173 167 152 154 167 164 163 170 178 181 179 177
170 139 132 219 120 174 291 213 206 202 211 203 232 245 180 199 185 130 115 102 98 89 82 73 68 63 58 61 86 90 102 115 113 113 116 124 136 134 139 141 139 132 128 134
150 144 115 155 141 228 229 119 201 225 246 222 256 239 223 172 113 100 97 129 113 99 91 80 80 77 70 80 88 97 97 99 100 100 107 113 116 114 118 112 102 98 133 193
171 134 122 155 193 294 223 191 183 178 253 219 227 206 155 140 125 86 67 94 111 105 92 88 87 87 88 88 94 95 93 96 98 100 103 107 111 111 116 119 134 189 258 243
94 66 147 158 172 212 183 209 144 118 274 200 194 177 161 163 170 167 155 127 105 96 95 99 98 97 93 92 99 97 97 98 97 100 104 107 110 112 110 109 287 277 276 284
128 63 169 165 210 287 242 145 149 157 261 195 190 172 167 181 117 131 134 118 113 115 112 108 100 94 94 99 100 95 96 95 103 104 101 98 89 75 55 28 343 313 304 298
163 157 174 121 114 254 153 106 174 206 179 185 177 171 157 125 126 127 129 129 128 121 114 107 102 96 96 98 99 96 92 100 102 99 91 78 65 49 24 2 340 328 320 311
233 198 181 190 203 199 198 194 192 162 168 191 173 159 143 140 147 142 139 137 131 124 117 113 107 99 92 93 98 97 94 97 95 90 78 67 55 40 21 6 350 336 328 317
245 180 193 125 206 214 216 227 221 192 194 171 168 151 154 150 149 141 139 137 132 129 122 119 110 103 94 91 91 94 99 99 94 83 70 56 45 29 19 10 2 349 342 336
194 152 167 266 265 344 254 226 197 172 143 128 116 149 151 142 146 144 141 139 135 129 125 120 114 108 101 95 88 91 93 93 86 77 60 40 26 16 5 4 357 354 346 341
189 179 179 212 203 187 222 196 170 164 169 157 139 128 141 145 144 144 139 140 137 131 128 119 115 111 105 97 88 79 76 73 72 65 47 32 23 15 10 358 350 349 353 351